This demonstration page uses our WeatherBlox Daily Observations layout. Learn more.

Hourly Observations for December 16, 2017

Temp ( °F °C ) Dew Point ( °F °C ) Humidity (%) Winds ( mph kmh ) Pressure ( in mb ) Visibility ( mi km ) Precip ( " mm )
12:54 am 00:54 Clear 39 3.9 21 -6.1 48 48 SSW 9 15 29.77 1008 10 16.0934 0 0
1:54 am 01:54 Clear 41 5 21 -6.1 45 45 SSW 8 13 29.76 1008 10 16.0934 0 0
2:54 am 02:54 Clear 35 1.7 20 -6.7 54 54 S 5 7 29.78 1008 10 16.0934 0 0
3:54 am 03:54 Clear 34 1.1 20 -6.7 56 56 SSW 3 6 29.77 1008 10 16.0934 0 0
4:54 am 04:54 Clear 33 0.6 20 -6.7 58 58 SSE 6 9 29.78 1008 10 16.0934 0 0
5:54 am 05:54 Clear 32 0 20 -6.7 61 61 S 3 6 29.79 1009 10 16.0934 0 0
6:54 am 06:54 Clear 29 -1.7 19 -7.2 66 66 Calm 29.81 1010 10 16.0934 0 0
7:54 am 07:54 Sunny 26 -3.3 18 -7.8 71 71 Calm 29.83 1010 10 16.0934 0 0
8:54 am 08:54 Sunny 31 -0.6 23 -5 72 72 S 5 7 29.83 1010 10 16.0934 0 0
9:54 am 09:54 Sunny 38 3.3 21 -6.1 51 51 Calm 29.85 1011 10 16.0934 0 0
10:54 am 10:54 Sunny 45 7.2 23 -5 42 42 Calm 29.87 1011 10 16.0934 0 0
11:54 am 11:54 Sunny 53 11.7 25 -3.9 34 34 NE 13 20 29.85 1011 10 16.0934 0 0
12:54 pm 12:54 Sunny 54 12.2 25 -3.9 33 33 NNE 13 20 29.85 1011 10 16.0934 0 0
1:54 pm 13:54 Sunny 55 12.8 24 -4.4 30 30 NE 8 13 29.85 1011 10 16.0934 0 0
2:54 pm 14:54 Sunny 55 12.8 24 -4.4 30 30 NE 10 17 29.86 1011 10 16.0934 0 0
3:54 pm 15:54 Sunny 54 12.2 25 -3.9 33 33 NE 13 20 29.88 1012 10 16.0934 0 0
4:54 pm 16:54 Sunny 45 7.2 25 -3.9 46 46 NNE 8 13 29.9 1013 10 16.0934 0 0
5:54 pm 17:54 Clear 38 3.3 24 -4.4 57 57 ENE 5 7 29.94 1014 10 16.0934 0 0
6:54 pm 18:54 Clear 38 3.3 24 -4.4 57 57 NE 5 7 29.97 1015 10 16.0934 0 0
7:54 pm 19:54 Clear 33 0.6 24 -4.4 70 70 NNE 12 19 29.98 1015 10 16.0934 0 0
8:54 pm 20:54 Clear 36 2.2 26 -3.3 67 67 N 9 15 29.97 1015 10 16.0934 0 0
9:54 pm 21:54 Clear 34 1.1 26 -3.3 73 73 N 12 19 29.98 1015 10 16.0934 0 0
10:54 pm 22:54 Clear 35 1.7 27 -2.8 72 72 N 9 15 29.98 1015 10 16.0934 0 0
11:54 pm 23:54 Clear 36 2.2 28 -2.2 73 73 N 12 19 29.96 1015 10 16.0934 0 0

Powered by AerisWeather